Regional Weather Roundup
Issued by NWS Goodland, KS

Home | Current Version | Previous Version | Graphics & Text | Print | Product List | Glossary On
Versions: 1 2 3 4 5 6 7 8 9 10 11 12 13 14 15 16 17 18 19 20 21 22 23 24 25 26 27 28 29 30 31 32 33 34 35 36 37 38 39 40 41 42 43 44 45 46 47 48 49 50
094
ASUS43 KGLD 140459
RWRGLD

GOODLAND FORECAST AREA HOURLY WEATHER ROUNDUP
NATIONAL WEATHER SERVICE GOODLAND KS
1000 PM MST WED DEC 13 2017

...OFFICIAL OBSERVATIONS...

CITY           SKY/WX    TMP DP  RH WIND       PRES   REMARKS
GOODLAND KS    CLOUDY    36  17  46 N7        30.09R
HILL CITY KS   PTCLDY    36  21  54 NW8       30.07R
IMPERIAL NEB   CLOUDY    37  20  50 N9        30.10R
MCCOOK NEB     CLOUDY    38  23  55 NW12      30.08R
AKRON CO       CLOUDY    37  14  38 N10       30.12R
BURLINGTON CO  CLOUDY    38  16  40 N9        30.09R
LIMON CO       CLOUDY    34  14  43 N6        30.09R
$$

...UNOFFICIAL OBSERVATIONS...

CITY           SKY/WX    TMP DP  RH WIND       PRES   REMARKS
LENORA KS        N/A     34  32  92 NW7         N/A
NORTON KS      CLEAR     34  18  51 NW8       30.05
SHARON SPRINGS   N/A     38  18  43 N6          N/A
TRENTON NEB      N/A     36  32  85 N5          N/A
KIT CARSON CO    N/A     41  16  36 MISG        N/A
YUMA CO        CLOUDY    36  16  44 N8        30.11R
$$




USA.gov is the U.S. government's official web portal to all federal, state and local government web resources and services.